STARLINK-36803

Last updated on Tue Mar 24 2026 00:02:05 GMT+0000 (Coordinated Universal Time)

1 67893U 26035Q 26082.37883487 .00288840 00000+0 14568-2 0 9990 2 67893 97.2868 15.5284 0001508 78.8413 281.3025 15.80853332 6000
UTC large
Height (km)
Speed (km/s)
/
Latitude / Longitude
Inclination (degrees)
Orbital Period (minutes)
Azimuth
Elevation
Range (km)
Doppler Factor

Next 0 passes for location: London (51.5072 / 0.1276)

Sorry there are no passes over London.